Jonesville, VA

6:23 PM EST on November 20, 2017 (GMT -0500)
Jonesville

Weather History for K0VG - February, 2014

Change the Weather History Date:

Sunday, February 16, 2014

  Actual Average (KLNP) Record (KLNP)
Temperature  
Mean Temperature 36 °F -  
Max Temperature 48 °F 44 °F 64 °F (2006)
Min Temperature 24 °F 27 °F 10 °F (2007)
Degree Days  
Heating Degree Days 29    
Moisture  
Dew Point 22 °F    
Average Humidity 73    
Maximum Humidity 100    
Minimum Humidity 4    
Precipitation  
Precipitation 0.00 in - - ()
Sea Level Pressure  
Sea Level Pressure 30.19 in    
Wind  
Wind Speed 2 mph (NW)    
Max Wind Speed 9 mph    
Max Gust Speed -    
Visibility 8 miles    
Events Snow    
Averages and records for this station are not official NWS values.
T = Trace of Precipitation, MM = Missing Value Source: NWS Daily Summary

Daily Weather History Graph

Daily Weather History Graph

Search for Another Location

Airport or City:

Trip Planner

Search our weather history database for the weather conditions in past years. The results will help you decide how hot, cold, wet, or windy it might be!

Date:

Astronomy

Feb. 16, 2014 Rise Set
Actual Time 7:19 AM EST 6:14 PM EST
Civil Twilight 6:53 AM EST 6:40 PM EST
Nautical Twilight 6:23 AM EST 7:11 PM EST
Astronomical Twilight 5:53 AM EST 7:41 PM EST
Moon 8:05 PM EST (2/16) 7:52 AM EST (2/16)
Length of Visible Light 11h 47m
Length of Day
10h 54m
Full, 97% of the Moon is Illuminated
Feb 16
Full
Feb 22
Last Quarter
Mar 1
New
Mar 8
First Quarter
Mar 16
Full

Hourly Weather History & Observations

Time (EST) Temp. Windchill Dew Point Humidity Pressure Visibility Wind Dir Wind Speed Gust Speed Precip Events Conditions
12:35 AM 24.8 °F - 23.0 °F 93% 30.09 in 3.0 mi Calm Calm - 0.01 in Snow Light Snow
12:55 AM 24.8 °F - 23.0 °F 93% - 2.5 mi North - - N/A Snow Light Snow
1:15 AM - - - N/A% - - North - - N/A   Unknown
1:55 AM - - - N/A% - - North - - N/A   Unknown
3:35 AM 24.8 °F - 23.0 °F 93% 30.86 in - Calm Calm - N/A   Overcast
3:55 AM 24.8 °F - 24.8 °F 100% - 10.0 mi North - - N/A   Overcast
5:55 AM - - - N/A% - 7.0 mi North - - N/A   Overcast
6:35 AM - - - N/A% - 7.0 mi North - - N/A   Overcast
6:55 AM 24.8 °F - 24.8 °F 100% 30.07 in 7.0 mi North - - N/A   Overcast
7:35 AM - - - N/A% - 5.0 mi Calm Calm - N/A   Mist
7:55 AM 24.8 °F - 24.8 °F 100% 30.09 in 5.0 mi Calm Calm - N/A   Mostly Cloudy
8:15 AM 24.8 °F - 23.0 °F 93% 30.89 in 5.0 mi North - - N/A   Mostly Cloudy
9:15 AM 28.4 °F - 24.8 °F 86% 30.10 in 9.0 mi North - - N/A   Scattered Clouds
9:35 AM - - - N/A% - 10.0 mi Calm Calm - N/A   Overcast
9:55 AM 32.0 °F - 24.8 °F 75% 30.11 in 10.0 mi North - - N/A   Mostly Cloudy
10:15 AM 32.0 °F - 24.8 °F 75% - 10.0 mi Calm Calm - N/A   Overcast
10:55 AM 35.6 °F - 24.8 °F 65% 30.11 in 10.0 mi North - - N/A   Overcast
11:55 AM 37.4 °F - 26.6 °F 65% 30.12 in 10.0 mi North - - N/A   Overcast
1:15 PM 41.0 °F 35.8 °F 26.6 °F 57% - 10.0 mi SW 8.1 mph - N/A   Mostly Cloudy
1:35 PM 44.6 °F - 28.4 °F 53% 30.08 in 10.0 mi North - - N/A   Mostly Cloudy
2:35 PM 46.4 °F 42.4 °F 28.4 °F 50% 30.07 in 10.0 mi WSW 8.1 mph - N/A   Overcast
2:55 PM - - 28.4 °F N/A% 30.06 in 10.0 mi North - - N/A   Overcast
3:35 PM 48.2 °F - 28.4 °F 46% 30.07 in 10.0 mi Calm Calm - N/A   Mostly Cloudy
4:15 PM - - - N/A% - - North - - N/A   Unknown
4:35 PM - - - N/A% - - North - - N/A   Unknown
5:15 PM 46.4 °F 42.9 °F 30.2 °F 53% 30.10 in - WNW 6.9 mph - N/A   Clear
5:55 PM 44.6 °F 40.7 °F 30.2 °F 57% 30.12 in - NW 6.9 mph - N/A   Clear
7:15 PM 39.2 °F - 30.2 °F 70% 30.16 in 10.0 mi North - - N/A   Mostly Cloudy
7:35 PM 39.2 °F 35.9 °F -113.8 °F 4% 30.17 in - NNW 4.6 mph - N/A   Mostly Cloudy
7:55 PM 39.2 °F 33.6 °F 30.2 °F 70% 30.17 in 10.0 mi North 8.1 mph - N/A   Scattered Clouds
8:15 PM 39.2 °F - 30.2 °F 70% 30.18 in 10.0 mi North - - N/A   Mostly Cloudy
8:35 PM 37.4 °F - 30.2 °F 75% 30.18 in - Calm Calm - N/A   Overcast
8:55 PM 35.6 °F - 30.2 °F 81% 30.19 in - Calm Calm - N/A   Overcast
9:15 PM 35.6 °F 28.6 °F 30.2 °F 81% 30.20 in 10.0 mi North 9.2 mph - N/A   Overcast
10:35 PM - - - N/A% - - North - - N/A   Unknown
10:55 PM 32.0 °F - 28.4 °F 87% 30.21 in 10.0 mi North - - N/A   Overcast
11:55 PM - - - N/A% - - Calm Calm - N/A   Unknown